Bisbee Douglas International Airport Douglas Bisbee US
ICAO: KDUG
IATA: DUG
Category: Medium
Scheduled Services: No

Elevation: 4154 ft
TransAlt. 18000 ft.

Airport Communications:
ASOS:119.275
PRESCOTT RDO:122.4
CTAF/UNICOM:123

KDUG Zoom In..

If you have problems with the map follow the link
https://www.worldairports.se/pages/airport.php?
ICAO=KDUG

Runways:

(A) RW 08 length 4966 ft width 60 ft
---- / hdg 78

(B) RW 17 length 6430 ft width 100 ft
---- / hdg 168

(C) RW 26 length 4966 ft width 60 ft
---- / hdg 258

(D) RW 35 length 6430 ft width 100 ft
---- / hdg 348

Location; KDUG
Day. 19 / Time. 12.56 Zulu
* Altimeter: 30.16
* Temperature: -02° c. -28.4°f.
* Wind from: 350° Speed 04 kn.
Dewpoint: -07° c.
Visibility: 10 Statute Miles.
Clouds: Clear (automated report).

KDUG 191256Z AUTO 35004KT 10SM CLR M02/M07 A3016 RMK AO2 SLP196 T10171072


Wind From 350°
Speed 04 kn.

 
 
jpsmedia.com for Web Design worldairports.se 2018   terms of use